Omak, WA

7:20 AM PDT on September 26, 2016 (GMT -0700)
Omak

Weather History for KOMK - July, 2013

Change the Weather History Date:

Friday, July 5, 2013

  Actual Average Record
Temperature  
Mean Temperature 76 °F 70 °F  
Max Temperature 88 °F 85 °F 102 °F (2007)
Min Temperature 63 °F 55 °F 39 °F (1999)
Degree Days  
Heating Degree Days 0 1  
Month to date heating degree days 0 5  
Since 1 June heating degree days 67 74  
Since 1 July heating degree days 0 5  
Cooling Degree Days 11 6  
Month to date cooling degree days 67 28  
Year to date cooling degree days 155 135  
Since 1 June cooling degree days 132 112  
Growing Degree Days 26 (Base 50)    
Moisture  
Dew Point 43 °F    
Average Humidity 35    
Maximum Humidity 48    
Minimum Humidity 21    
Precipitation  
Precipitation 0.00 in 0.03 in 0.41 in (1956)
Month to date precipitation 0.00 0.14  
Year to date precipitation 5.84 8.12  
Sea Level Pressure  
Sea Level Pressure 29.78 in    
Wind  
Wind Speed 10 mph (North)    
Max Wind Speed 18 mph    
Max Gust Speed 24 mph    
Visibility 10 miles    
Events      
T = Trace of Precipitation, MM = Missing Value Source: NWS Daily Summary

Daily Weather History Graph

Daily Weather History Graph

Search for Another Location

Airport or City:

Trip Planner

Search our weather history database for the weather conditions in past years. The results will help you decide how hot, cold, wet, or windy it might be!

Date:

Astronomy

Jul. 05, 2013 Rise Set
Actual Time 5:03 AM PDT 9:01 PM PDT
Civil Twilight 4:22 AM PDT 9:42 PM PDT
Nautical Twilight 3:25 AM PDT 10:39 PM PDT
Astronomical Twilight 1:50 AM PDT 12:12 AM PDT
Moon 3:11 AM PDT (7/5) 6:55 PM PDT (7/5)
Length of Visible Light 17h 20m
Length of Day
15h 58m
Waning Crescent, 6% of the Moon is Illuminated
Jul 5
Waning Crescent
Jul 8
New
Jul 15
First Quarter
Jul 22
Full
Jul 29
Last Quarter

Hourly Weather History & Observations

Time (PDT) Temp. Dew Point Humidity Pressure Visibility Wind Dir Wind Speed Gust Speed Precip Events Conditions
12:53 AM 66.9 °F 39.0 °F 36% 29.79 in 10.0 mi NNW 9.2 mph - N/A   Clear
1:53 AM 66.0 °F 39.0 °F 37% 29.80 in 10.0 mi NNW 10.4 mph - N/A   Clear
2:53 AM 64.0 °F 41.0 °F 43% 29.80 in 10.0 mi NNW 10.4 mph - N/A   Clear
3:53 AM 63.0 °F 41.0 °F 45% 29.80 in 10.0 mi NNW 9.2 mph - N/A   Clear
4:53 AM 64.0 °F 41.0 °F 43% 29.80 in 10.0 mi NNW 12.7 mph - N/A   Clear
5:53 AM 63.0 °F 42.1 °F 46% 29.81 in 10.0 mi NNW 10.4 mph - N/A   Clear
6:53 AM 64.9 °F 45.0 °F 48% 29.82 in 10.0 mi NW 9.2 mph - N/A   Clear
7:53 AM 68.0 °F 45.0 °F 43% 29.83 in 10.0 mi North 11.5 mph 20.7 mph N/A   Mostly Cloudy
8:53 AM 73.0 °F 45.0 °F 37% 29.83 in 10.0 mi North 17.3 mph 20.7 mph N/A   Clear
9:53 AM 75.9 °F 46.0 °F 35% 29.82 in 10.0 mi NNE 15.0 mph 19.6 mph N/A   Clear
10:53 AM 80.1 °F 45.0 °F 29% 29.80 in 10.0 mi NNE 17.3 mph 23.0 mph N/A   Clear
11:53 AM 82.0 °F 46.0 °F 28% 29.79 in 10.0 mi North 13.8 mph 21.9 mph N/A   Scattered Clouds
12:53 PM 82.9 °F 45.0 °F 26% 29.78 in 10.0 mi NNE 9.2 mph - N/A   Clear
1:53 PM 84.9 °F 44.1 °F 24% 29.76 in 10.0 mi Variable 5.8 mph - N/A   Clear
2:53 PM 84.0 °F 44.1 °F 25% 29.75 in 10.0 mi NNE 8.1 mph - N/A   Clear
3:53 PM 84.0 °F 42.1 °F 23% 29.74 in 10.0 mi Calm Calm - N/A   Clear
4:53 PM 88.0 °F 43.0 °F 21% 29.73 in 10.0 mi NNE 12.7 mph 17.3 mph N/A   Scattered Clouds
5:53 PM 82.0 °F 44.1 °F 26% 29.73 in 10.0 mi North 9.2 mph - N/A   Partly Cloudy
6:53 PM 80.1 °F 43.0 °F 27% 29.74 in 10.0 mi North 10.4 mph - N/A   Partly Cloudy
7:53 PM 78.1 °F 43.0 °F 29% 29.75 in 10.0 mi North 6.9 mph - N/A   Overcast
8:53 PM 75.9 °F 39.9 °F 27% 29.77 in 10.0 mi North 9.2 mph - N/A   Overcast
9:53 PM 73.0 °F 41.0 °F 31% 29.79 in 10.0 mi NNW 10.4 mph - N/A   Mostly Cloudy
10:53 PM 73.0 °F 39.9 °F 30% 29.80 in 10.0 mi NNW 8.1 mph - N/A   Overcast
11:53 PM 69.1 °F 39.9 °F 35% 29.81 in 10.0 mi NNW 8.1 mph - N/A   Partly Cloudy